Regional Weather Roundup
Issued by NWS San Angelo, TX

Home | Current Version | Previous Version | Text Only | Print | Product List | Glossary On
Versions: 1 2 3 4 5 6 7 8 9 10 11 12 13 14 15 16 17 18 19 20 21 22 23 24 25 26 27 28 29 30 31 32 33 34 35 36 37 38 39 40 41 42 43 44 45 46 47 48 49 50
000
ASUS44 KSJT 201410
RWRSJT
WEST CENTRAL TEXAS REGIONAL WEATHER ROUNDUP
NATIONAL WEATHER SERVICE SAN ANGELO TX
800 AM CST SAT DEC 20 2014

NOTE: "FAIR" INDICATES FEW OR NO CLOUDS BELOW 12,000 FEET WITH NO
SIGNIFICANT WEATHER AND/OR OBSTRUCTIONS TO VISIBILITY.

TXZ049-054-064>066-071>073-076>078-098-099-113-114-127-128-139-140-
154-155-168>170-201500
...LOCATIONS ACROSS WEST CENTRAL TEXAS...

CITY           SKY/WX    TMP DP  RH WIND       PRES   REMARKS
SAN ANGELO     CLOUDY    41  39  93 S6        30.20R WCI  37
ABILENE        CLOUDY    45  37  73 CALM      30.20S
DYESS AFB      NOT AVBL
JUNCTION       CLOUDY    43  42  97 CALM      30.21R
SWEETWATER     CLOUDY    44  38  81 CALM      30.21S
BROWNWOOD      CLOUDY    46  43  87 SE3       30.21R
COLEMAN        CLOUDY    46  44  95 CALM      30.20R
SONORA         CLOUDY    43  43 100 E3        30.23S FOG
OZONA          CLOUDY    39  39 100 CALM      30.20S
BRADY          NOT AVBL
$$

TEXAS PANHANDLE/OKLAHOMA PANHANDLE

CITY           SKY/WX    TMP DP  RH WIND       PRES   REMARKS
AMARILLO       FOG       32  32 100 S12       30.10S VSB 1/4 WCI  23
BORGER         CLOUDY    36  32  85 W6        30.12R FOG     WCI  31
CANADIAN       CLOUDY    40  37  87 S5        30.13S WCI  37
DALHART        FOG       28  27  96 SW6       30.09R VSB 1/4 WCI  22
DUMAS          FOG       30  29  98 W8        30.10R VSB 3/4 WCI  22
GUYMON         NOT AVBL
HEREFORD       FOG       32  32 100 SW10      30.10S VSB 1/4 WCI  23
PAMPA          CLOUDY    35  33  94 SW6       30.12S FOG     WCI  30
PERRYTON       CLOUDY    34  33  96 SW9       30.11S VSB 1/2 WCI  27
$$

SOUTHERN PANHANDLE/SOUTH PLAINS/ROLLING PLAINS

CITY           SKY/WX    TMP DP  RH WIND       PRES   REMARKS
LUBBOCK        CLOUDY    37  35  92 SW10      30.13S FOG     WCI  30
SNYDER         CLOUDY    41  37  84 CALM      30.18F
CHILDRESS      CLOUDY    42  39  89 S5        30.17R WCI  39
SEMINOLE       FOG       37  37 100 SE3       30.15R VSB 1/2
$$

PERMIAN BASIN

CITY           SKY/WX    TMP DP  RH WIND       PRES   REMARKS
MIDLAND        FOG       37  37 100 E7        30.15R VSB 1/4 WCI  32
ODESSA         FOG       38  37  97 SE5       30.15R VSB 1/4 WCI  34
WINK           FOG       35  32  88 SE7       30.13S VSB 1/4 WCI  29
$$

FAR WEST/SOUTHWEST MOUNTAINS/TRANS PECOS

CITY           SKY/WX    TMP DP  RH WIND       PRES   REMARKS
ALPINE         SUNNY     36  28  74 SW3       30.19S
DRYDEN           N/A     47  44  90 SE5       30.15S
EL PASO        PTCLDY    26  22  84 E5        30.14F WCI  20
FORT STOCKTON  CLEAR     37  31  78 SW12      30.14R WCI  29
GUADALUPE PASS NOT AVBL
MARFA          CLEAR     23  19  86 NW9       30.16R WCI  13
PECOS            N/A     28  27  96 CALM      30.16R FOG
$$

DALLAS/FORT WORTH METROPLEX

CITY           SKY/WX    TMP DP  RH WIND       PRES   REMARKS
DFW AIRPORT    DRIZZLE   45  42  89 NE7       30.24R FOG
FTW MEACHAM    CLOUDY    46  41  82 NE6       30.23S HAZE
DAL-EXECUTIVE  CLOUDY    47  43  86 N3        30.23S FOG
GRAND PRAIRIE  CLOUDY    46  46 100 N7        30.25  FOG
ADDISON        CLOUDY    45  41  87 NE5       30.25
MESQUITE       CLOUDY    45  45 100 N3        30.25
LANCASTER      CLOUDY    46  42  89 N5        30.25S FOG
$$

NORTH CENTRAL TEXAS

CITY           SKY/WX    TMP DP  RH WIND       PRES   REMARKS
SHRMAN/DENISON CLOUDY    43  42  94 CALM      30.25F
GAINESVILLE    CLOUDY    42  36  81 N3        30.26S
BRIDGEPORT     CLOUDY    44  41  89 CALM      30.26R
DENTON         CLOUDY    44  40  85 NE6       30.25R
WAXAHACHIE     CLOUDY    45  45 100 N3        30.24S FOG
GRANBURY       CLOUDY    46  42  86 CALM      30.25S
$$

WESTERN NORTH TEXAS

CITY           SKY/WX    TMP DP  RH WIND       PRES   REMARKS
WICHITA FALLS  CLOUDY    42  40  92 E3        30.21S
VERNON         CLOUDY    43  39  84 E3        30.21R
BRECKENRIDGE   CLOUDY    46  42  86 CALM      30.22R
COMANCHE       CLOUDY    44  44 100 E5        30.21R FOG
$$

CENTRAL AND SOUTH CENTRAL TEXAS

CITY           SKY/WX    TMP DP  RH WIND       PRES   REMARKS
AUSTIN/BERGSTM DRIZZLE   49  45  86 N8        30.23R FOG
WACO           CLOUDY    47  45  93 N7        30.22F
HILLSBORO      CLOUDY    46  43  89 CALM      30.23R FOG
TEMPLE         CLOUDY    46  41  81 NE6       30.21R
KILLEEN-GRAY   CLOUDY    46  44  91 N6        30.22R
FORT HOOD      CLOUDY    47  44  91 N6        30.21R
GEORGETOWN     CLOUDY    48  43  81 N3        30.21R
LAGO VISTA     CLOUDY    47  44  88 CALM      30.22R
SAN MARCOS     CLOUDY    48  43  81 N9        30.23R
NEW BRAUNFELS  CLOUDY    50  44  80 NE7       30.22R
RANDOLPH AFB   CLOUDY    49  43  78 N7        30.22R
SAN ANTONIO    CLOUDY    49  43  80 N9        30.22R
STINSON        CLOUDY    50  43  77 N9        30.22R
PLEASANTON     NOT AVBL
LA GRANGE      CLOUDY    51  47  89 N3        30.21R
GIDDINGS       CLOUDY    48  46  91 N3        30.25S FOG
$$

EAST TEXAS

CITY           SKY/WX    TMP DP  RH WIND       PRES   REMARKS
PARIS          CLOUDY    45  41  87 CALM      30.26R
CLARKSVILLE    NOT AVBL
TYLER          CLOUDY    46  44  93 NE5       30.23R FOG
LONGVIEW       CLOUDY    45  42  89 NE5       30.24R
PALESTINE      CLOUDY    47  46  95 N5        30.23S
NACOGDOCHES    CLOUDY    46  43  87 NE5       30.23R
$$

TEXAS HILL COUNTRY AND EDWARDS PLATEAU

CITY           SKY/WX    TMP DP  RH WIND       PRES   REMARKS
LLANO          CLOUDY    48  45  87 CALM      30.26R
HORSESHOE BAY  CLOUDY    46  42  83 E3        30.23R
KERRVILLE      CLOUDY    44  40  86 E3        30.22R
FREDERICKSBRG  CLOUDY    45  40  84 CALM      30.21R
ROCKSPRINGS    CLOUDY    45  43  93 E6        30.20R
HONDO          CLOUDY    48  44  86 NE6       30.24R
UVALDE         CLOUDY    39  38  97 CALM      30.23R
DEL RIO        CLOUDY    51  46  83 SE10      30.19R
$$

SOUTHEAST TEXAS

CITY           SKY/WX    TMP DP  RH WIND       PRES   REMARKS
COLLEGE STN    CLOUDY    50  47  89 N7        30.22R
CALDWELL       CLOUDY    48  48 100 N5        30.25R
CROCKETT       CLOUDY    52  48  87 N6        30.24S
BRENHAM        CLOUDY    51  49  93 N6        30.22R
HUNTSVILLE     CLOUDY    49  47  93 VRB3      30.20R FOG
CONROE         CLOUDY    49  47  93 CALM      30.20R
HOUSTON BUSH   CLOUDY    51  48  89 N8        30.20R
HOUSTON HOBBY  CLOUDY    52  49  89 N10       30.18R
PERLAND        CLOUDY    53  49  86 NE10      30.19R
WHARTON        CLOUDY    51  49  92 N3        30.21R
$$

THE UPPER TEXAS COAST

CITY           SKY/WX    TMP DP  RH WIND       PRES   REMARKS
ORANGE         CLOUDY    49  49  99 N5        30.19R FOG
PORT ARTHUR    CLOUDY    50  49  96 N10       30.17R FOG
GALVESTON      CLOUDY    51  51 100 N17       30.18R FOG
ANGLETON       CLOUDY    50  50 100 N7        30.18R FOG
BAY CITY         N/A     53  52  97 N8        30.19R
$$

TEXAS COASTAL BEND, RIO GRANDE PLAINS DEEP SOUTH TEXAS

CITY           SKY/WX    TMP DP  RH WIND       PRES   REMARKS
VICTORIA       CLOUDY    51  47  86 NW10      30.20S
BEEVILLE       CLOUDY    51  49  93 N7        30.21R
ROCKPORT       CLOUDY    52  48  86 NW14      30.19R
PORT ARANSAS   CLOUDY    52  49  89 N16       30.18R
PORT LAVACA    CLOUDY    51  49  93 N10       30.20S
CORPUS CHRISTI CLOUDY    52  48  86 N16       30.18F
KINGSVILLE NAS CLOUDY    52  51  97 NE10      30.20R
COTULLA        CLOUDY    51  46  83 E6        30.22R
LAREDO         NOT AVBL
BROWNSVILLE    CLOUDY    59  56  89 N13       30.13R
PORT ISABEL    CLOUDY    59  56  89 N14       30.14R
HEBBRONVILLE   CLOUDY    50  48  92 N9        30.20R FOG
MCALLEN        CLOUDY    57  55  93 N8        30.18R FOG
WESLACO        CLOUDY    56  53  88 N8        30.17R FOG
FALFURRIAS     CLOUDY    53  50  90 N9        30.19R
EDINBURG       CLOUDY    57  54  89 N9        30.18R FOG
$$



USA.gov is the U.S. government's official web portal to all federal, state and local government web resources and services.